TITAN 3C TRANSTAGE DEB, 26780

Orbit data source: Space-Track

TITAN 3C TRANSTAGE DEB, 26780 is space debris in HEO originally from a launch on Tue, 21 Dec 1965 UTC launched from the Air Force Eastern Test Range (AFETR). Debris objects in space refer to the collection of defunct objects orbiting the Earth. Examples of debris include non-operational satellites, rocket bodies, and fragments generated from explosions, collisions, or faulty payload assembly.

Loading next visibility...
Identifier
26780, 1965-108AY
Orbit
HEO
Country
Flag of USUS
Related business
Manufacturer
Unknown
Mission
Spacecraft
Bus & Motor
Unknown
Mass
Unknown
Launch date (UTC)
1965-12-21 (60 years ago)
Launch vehicle
Unknown
Launch site
Air Force Eastern Test Range (AFETR)
Object type
Payload
Rocket body
Debris
Shape & HBR
Unknown shape, 0.5 m
Radar Cross Section
Medium (>0.1 m² and <1 m²)

Expand to show TLE details & history
Last TLE update: 6 days ago

TLE from 6 days ago
0 TITAN 3C TRANSTAGE DEB
1 26780U 65108AY  26115.56534868 -.00000052  00000-0  00000-0 0  9991
2 26780  26.2230 213.7113 6308830 115.6333   0.2166  2.58811764139121
Epoch: 2026-04-25T13:34Z
TLE epoch observation values (Epoch: 2026-04-25T13:34:06.125Z)
Latitude
23.41862°
Longitude
-84.38773°
Altitude
1,897.211 km
Speed
8.864 km/s
True Right ascension
22h 10m 52s
True Declination
23° 18' 39"
Sunlit
Object was in daylight at epoch
Visualization orbit readout
Latitude
Unknown
Longitude
Unknown
Altitude
Unknown
Speed
Unknown
Apparent Right ascension
Unknown
Apparent Declination
Unknown
Sunlit
N/A
Visualization observer readout
Local Sidereal Time
08:32:17
Azimuth
Unknown
Elevation
Unknown
Doppler factor
Unknown
Orbital elements
Apogee altitude
30,172.356 km
Perigee altitude
1,894.319 km
Semi-major axis
22,411.475 km
Eccentricity
0.63088
Inclination
26.223°
RAAN
213.7113°
Arg. of periapsis
115.6333°
True anomaly
1.23338°
Mean anomaly
0.2166°
Eccentric anomaly
0.58679°
Mean motion
0.6469 °/min
Orbital period
556.5 mins
BSTAR
0
Loading maneuver chart data...
Computing Atmospheric mass density...

Documentation

Showing up to 5 results
|